This is the latest recevied weather packets stored in our database for station/object AI9T. If no packets are shown the sender has not sent any weather packets the latest 10 day(s).
| Time | Temp. | Humidity | Pressure | Rain* | Wind** | Luminosity | Snow |
|---|---|---|---|---|---|---|---|
| 1778332204 | 12.78° C | 97% | 1007.7 hPa | 0 mm | - | - | - |
| 1778330404 | 12.22° C | 97% | 1008 hPa | 0 mm | - | - | - |
| 1778329204 | 12.22° C | 97% | 1008 hPa | 0 mm | - | - | - |
| 1778328004 | 11.67° C | 97% | 1007.8 hPa | 0 mm | - | - | - |
| 1778325604 | 11.67° C | 97% | 1007.3 hPa | 0 mm | - | - | - |
| 1778323504 | 11.67° C | 97% | 1006.9 hPa | 0 mm | - | - | - |
| 1778321703 | 11.11° C | 97% | 1006.8 hPa | 0 mm | - | - | - |
| 1778320504 | 11.11° C | 97% | 1006.6 hPa | 0 mm | - | - | - |
| 1778318704 | 10.56° C | 97% | 1006.4 hPa | 0.25 mm | - | - | - |
| 1778316903 | 11.67° C | 97% | 1006.2 hPa | 0.25 mm | - | - | - |
| 1778315103 | 12.22° C | 97% | 1006.3 hPa | 0 mm | - | - | - |
| 1778314504 | 12.22° C | 97% | 1006.5 hPa | 0 mm | - | - | - |
| 1778313904 | 12.22° C | 97% | 1006.6 hPa | 0 mm | - | - | - |
| 1778313604 | 12.22° C | 97% | 1006.6 hPa | 0 mm | - | - | - |
| 1778310604 | 12.78° C | 97% | 1007 hPa | 2.03 mm | - | - | - |
| 1778309404 | 12.78° C | 97% | 1007 hPa | 3.05 mm | - | - | - |
| 1778304005 | 13.33° C | 96% | 1008 hPa | 0.51 mm | - | - | - |
| 1778301904 | 13.33° C | 96% | 1008.4 hPa | 0 mm | - | - | - |
| 1778301004 | 13.89° C | 96% | 1008.4 hPa | 0.25 mm | - | - | - |
| 1778299804 | 13.33° C | 96% | 1008.3 hPa | 0.51 mm | - | - | - |
| 1778298904 | 13.89° C | 96% | 1008.1 hPa | 0.76 mm | - | - | - |
| 1778295004 | 13.89° C | 95% | 1008.8 hPa | 0.76 mm | - | - | - |
| 1778293804 | 13.89° C | 94% | 1008.6 hPa | 0.76 mm | - | - | - |
| 1778292904 | 13.89° C | 94% | 1008.6 hPa | 0.76 mm | - | - | - |
| 1778290504 | 13.89° C | 93% | 1008 hPa | 0.76 mm | - | - | - |
* Rain latest hour (hover to see other rain measurements)
** Current wind speed in m/s (hover to see current wind gust speed)